COSMOS 1275 DEB, 42180

Orbit data source: Space-Track

COSMOS 1275 DEB, 42180 is space debris in LEO originally from a launch on Thu, 04 Jun 1981 UTC launched from the Plesetsk Missile And Space Complex (PKMTR). Debris objects in space refer to the collection of defunct objects orbiting the Earth. Examples of debris include non-operational satellites, rocket bodies, and fragments generated from explosions, collisions, or faulty payload assembly.

Loading next visibility...
Identifier
42180, 1981-053SU
Orbit
LEO
Country
Flag of CISCIS
Related business
Manufacturer
Unknown
Mission
Spacecraft
Bus & Motor
Unknown
Mass
Unknown
Launch date (UTC)
1981-06-04 (45 years ago)
Launch vehicle
Unknown
Launch site
Plesetsk Missile And Space Complex (PKMTR)
Object type
Payload
Rocket body
Debris
Shape & HBR
Unknown shape, 0.1 m
Radar Cross Section
Small (<0.1 m²)

Expand to show TLE details & history
Last TLE update: 2 days ago

TLE from 2 days ago
0 COSMOS 1275 DEB
1 42180U 81053SU  26035.41640341  .00033699  00000-0  37899-2 0  9999
2 42180  82.8537  74.9325 0012964 120.6461 301.6289 14.86475067608924
Epoch: 2026-02-04T09:59Z
TLE epoch observation values (Epoch: 2026-02-04T09:59:37.254Z)
Latitude
61.41407°
Longitude
163.6729°
Altitude
614.749 km
Speed
7.56 km/s
True Right ascension
05h 52m 38s
True Declination
61° 15' 59"
Sunlit
Object was in full shadow at epoch
Visualization orbit readout
Latitude
Unknown
Longitude
Unknown
Altitude
Unknown
Speed
Unknown
Apparent Right ascension
Unknown
Apparent Declination
Unknown
Sunlit
N/A
Visualization observer readout
Local Sidereal Time
16:26:31
Azimuth
Unknown
Elevation
Unknown
Doppler factor
Unknown
Orbital elements
Apogee altitude
615.014 km
Perigee altitude
596.905 km
Semi-major axis
6,984.097 km
Eccentricity
0.0013
Inclination
82.8537°
RAAN
74.9325°
Arg. of periapsis
120.6461°
True anomaly
301.5023°
Mean anomaly
301.6289°
Eccentric anomaly
301.56561°
Mean motion
3.71859 °/min
Orbital period
96.81 mins
BSTAR
0.0037899
Loading maneuver chart data...
Computing Atmospheric mass density...
Loading historical data...
Loading historical data...
Loading historical data...
Loading historical data...
Loading historical data...
Loading historical data...
Loading historical data...

Documentation

Showing up to 5 results
|